Temp
21 19 20 20 23 26 25 23 24 22 22 19 19 20 20 18 18 18 10 10 10 10 9 8 10 7 7 7 7 6 6 6 6 6 6 7 6 6 6 7 7 7 7 6 7 7 6 6 6
20 20 20 24 25 26 24 24 23 22 19 18 18 19 20 18 14 11 10 9 10 10 9 8 9 7 6 7 7 6 8 6 6 7 6 6 6 6 6 7 6 6 6 6 6 6 6 5 5
21 20 24 26 26 25 24 24 21 19 18 19 19 17 18 15 13 12 11 9 9 9 9 8 9 8 7 7 7 7 6 6 5 6 6 5 5 6 6 6 5 5 5 6 5 5 5 5 5
21 22 24 25 25 23 24 23 20 20 18 18 19 19 15 13 13 12 10 10 10 9 9 10 10 10 9 8 8 6 5 5 6 8 7 7 5 5 5 5 5 5 5 5 5 5 6 6 5
21 23 25 25 24 23 24 22 21 21 20 19 18 19 15 12 11 10 10 10 9 9 8 7 10 10 9 9 8 6 6 8 8 9 9 9 7 6 5 6 7 5 4 4 4 4 7 8 8
23 24 25 25 24 23 22 21 21 21 20 19 19 19 15 12 11 10 10 10 9 8 8 7 10 10 10 9 7 7 8 9 9 9 9 9 8 8 8 8 9 8 8 8 7 7 9 9 9
23 25 25 25 24 22 22 21 21 21 20 20 18 20 15 11 11 10 10 9 9 8 8 7 7 9 9 9 9 9 9 9 9 9 9 9 8 8 8 8 8 9 8 9 9 9 9 9 9
22 24 24 24 23 23 21 20 19 20 20 16 17 20 18 13 11 10 10 9 9 8 8 8 7 7 7 6 9 9 9 9 9 9 9 8 9 8 8 8 8 8 9 9 9 9 8 9 8
20 24 24 23 23 23 20 20 18 17 18 16 16 17 14 12 10 10 9 9 9 8 8 8 7 8 7 6 8 9 9 9 9 9 9 7 5 6 5 8 8 8 8 9 9 9 9 8 5
22 24 23 22 22 22 20 20 19 18 19 18 16 13 13 11 10 10 10 10 9 9 8 8 8 8 9 8 9 8 8 8 8 8 8 7 6 7 8 8 8 8 8 9 8 8 8 6 5
22 23 22 20 20 19 20 19 19 19 20 20 19 16 13 11 11 11 11 11 10 9 8 9 10 10 9 7 8 7 7 8 8 8 9 8 7 6 7 6 6 7 8 7 6 5 5 4 5
23 20 20 19 18 19 20 20 19 19 20 18 18 17 13 12 12 12 12 12 11 10 9 10 10 10 9 8 9 7 8 8 7 8 8 8 7 7 7 7 7 8 8 7 6 6 5 4 4
23 20 19 18 17 18 18 19 19 19 19 16 16 16 14 13 13 13 13 12 12 10 9 10 11 10 9 8 7 8 8 8 7 8 8 8 8 7 7 7 7 7 7 7 6 7 6 4 4
20 20 20 18 19 18 18 20 16 20 19 17 15 15 15 14 14 13 13 12 12 11 10 8 10 11 9 8 8 8 8 7 9 8 8 8 8 7 7 6 7 6 7 7 7 7 6 4 4
20 21 21 20 20 20 17 19 19 19 18 18 16 16 16 15 14 14 13 13 12 11 10 9 9 10 10 9 8 9 9 8 8 8 8 8 8 8 7 6 6 7 7 7 6 6 6 5 4
22 22 24 21 20 18 18 23 22 20 18 19 18 18 16 15 14 14 13 12 12 11 10 9 8 10 10 10 9 9 9 9 8 8 8 8 8 8 7 7 6 7 7 7 7 6 6 5 4
23 25 24 23 20 20 19 22 22 19 18 19 19 19 17 16 15 14 13 12 12 11 11 9 9 10 10 10 8 8 8 9 8 8 7 8 8 8 8 7 7 7 7 7 7 6 6 6 5
23 24 24 23 22 20 20 21 23 21 19 19 20 20 18 16 15 14 13 13 12 11 11 10 9 9 8 9 9 8 8 8 8 8 8 7 8 8 7 7 7 7 6 6 6 6 6 6 6
22 22 23 24 21 18 21 22 24 23 21 19 19 20 19 18 17 15 14 12 11 11 10 10 9 9 8 8 8 8 8 8 9 8 8 8 8 8 7 7 6 6 6 6 6 6 6 5 5
22 22 24 23 20 18 22 22 24 22 22 22 19 20 20 19 18 16 14 13 12 11 10 10 10 9 9 9 8 7 6 6 6 8 9 8 8 8 8 7 7 6 6 5 5 5 5 4 3
23 21 21 20 21 22 20 24 24 21 19 18 18 19 20 19 18 17 15 14 12 11 11 11 11 10 10 10 9 9 7 7 7 8 9 9 8 8 8 7 7 6 6 6 5 5 5 5 4
21 19 18 19 20 23 22 25 26 25 23 20 19 18 19 19 18 18 16 14 13 12 12 11 11 11 10 10 10 9 10 10 10 9 9 9 9 8 8 7 7 6 5 5 5 4 5 5 3
20 17 18 18 19 21 22 23 26 25 24 24 22 21 19 19 18 17 17 16 14 13 13 13 12 12 11 11 11 11 10 10 9 8 7 8 8 8 8 7 7 6 5 5 4 4 4 4 3
17 18 20 19 20 22 21 22 27 26 24 24 22 21 19 19 18 17 17 16 15 14 14 15 14 13 13 12 12 12 11 11 9 9 9 9 8 8 8 8 7 7 6 5 5 5 5 4 3
19 21 23 23 23 24 20 22 25 25 24 23 22 22 20 19 18 18 19 19 18 17 16 16 15 14 13 13 12 12 12 11 10 10 9 9 9 8 9 8 8 7 7 6 6 5 5 4 4
19 19 22 20 22 23 19 21 25 23 22 21 20 20 19 19 19 20 20 19 19 19 18 16 15 15 13 13 13 13 12 11 11 10 10 9 9 9 8 8 8 7 7 6 6 6 5 4 4
19 21 18 20 20 20 24 25 25 23 23 21 20 19 19 19 19 18 18 18 17 17 17 16 16 15 14 13 12 13 12 12 12 11 10 10 9 9 8 8 8 8 7 6 6 6 5 4 4
17 18 20 21 19 20 25 24 25 25 24 22 21 20 20 20 19 18 17 17 16 16 16 16 16 15 14 13 12 12 12 12 12 11 10 11 10 9 9 8 8 7 7 7 6 6 5 5 4
17 19 19 19 20 21 21 24 25 25 24 23 23 22 21 20 19 19 17 17 16 17 17 17 16 16 15 13 13 12 11 11 10 10 11 10 10 10 9 9 8 8 7 7 6 6 6 5 5
17 19 20 20 20 20 19 20 24 24 23 21 21 21 21 20 19 18 17 18 16 17 17 17 17 16 15 15 13 11 9 9 9 9 10 10 10 10 10 9 9 8 8 7 7 6 6 5 5
Height
1547 1548 1548 1548 1548 1533 1542 1553 1551 1557 1558 1566 1567 1566 1567 1570 1572 1577 1584 1585 1586 1588 1588 1587 1585 1586 1586 1586 1584 1584 1582 1582 1581 1579 1580 1579 1578 1577 1575 1574 1573 1572 1570 1568 1567 1565 1562 1559 1557
1548 1549 1549 1545 1541 1537 1544 1546 1553 1559 1566 1568 1569 1569 1569 1576 1579 1580 1584 1585 1588 1588 1589 1589 1586 1587 1587 1585 1585 1584 1583 1584 1583 1581 1580 1580 1579 1577 1577 1576 1573 1571 1569 1567 1566 1564 1561 1560 1558
1548 1549 1548 1539 1536 1543 1547 1549 1559 1566 1568 1569 1570 1572 1574 1580 1582 1584 1584 1585 1587 1588 1589 1587 1587 1587 1587 1586 1585 1585 1584 1584 1582 1581 1580 1579 1578 1577 1577 1575 1573 1571 1570 1567 1566 1563 1560 1559 1558
1552 1551 1547 1543 1541 1550 1548 1554 1562 1566 1569 1570 1570 1573 1579 1582 1584 1584 1583 1585 1587 1588 1590 1586 1587 1587 1587 1587 1586 1586 1585 1584 1582 1581 1579 1578 1577 1578 1577 1575 1572 1571 1569 1568 1566 1563 1560 1558 1557
1552 1548 1541 1541 1547 1551 1552 1559 1563 1563 1567 1569 1571 1572 1579 1582 1582 1583 1584 1587 1588 1589 1590 1587 1587 1587 1587 1587 1587 1587 1585 1584 1582 1581 1580 1579 1578 1576 1575 1573 1571 1570 1568 1567 1565 1563 1561 1558 1557
1550 1547 1541 1540 1546 1554 1557 1562 1564 1564 1567 1570 1571 1572 1580 1581 1582 1583 1585 1587 1588 1588 1589 1588 1587 1587 1588 1588 1587 1587 1585 1584 1583 1582 1580 1579 1578 1576 1574 1573 1571 1569 1567 1565 1564 1562 1561 1560 1558
1550 1544 1540 1543 1549 1555 1558 1563 1563 1565 1568 1570 1572 1570 1579 1580 1582 1583 1585 1587 1588 1588 1588 1589 1589 1587 1588 1587 1587 1586 1586 1585 1584 1582 1581 1580 1578 1577 1575 1574 1572 1571 1569 1567 1565 1563 1561 1560 1558
1553 1548 1547 1545 1550 1553 1560 1564 1567 1567 1567 1571 1573 1569 1573 1579 1581 1583 1585 1586 1587 1587 1588 1589 1589 1589 1589 1588 1586 1586 1585 1585 1584 1583 1582 1581 1579 1578 1576 1575 1574 1572 1570 1569 1567 1565 1562 1560 1559
1555 1547 1546 1550 1552 1553 1562 1564 1568 1569 1570 1572 1573 1574 1576 1576 1578 1581 1584 1585 1586 1586 1587 1588 1588 1588 1588 1589 1586 1585 1585 1584 1584 1583 1583 1581 1583 1580 1579 1576 1575 1573 1571 1570 1569 1567 1565 1562 1561
1553 1546 1551 1556 1556 1556 1563 1563 1566 1569 1568 1571 1573 1573 1575 1575 1577 1580 1583 1585 1585 1585 1586 1586 1587 1587 1587 1587 1586 1586 1585 1584 1584 1584 1584 1583 1583 1581 1579 1577 1576 1574 1572 1570 1569 1568 1565 1564 1563
1556 1552 1557 1560 1561 1562 1562 1564 1566 1566 1564 1565 1567 1571 1573 1574 1577 1580 1582 1584 1585 1585 1585 1585 1585 1585 1586 1586 1585 1585 1584 1584 1584 1584 1584 1583 1582 1582 1580 1579 1577 1575 1573 1572 1571 1570 1567 1566 1565
1554 1560 1560 1562 1563 1563 1562 1563 1563 1564 1563 1564 1566 1568 1571 1573 1576 1578 1581 1583 1584 1583 1583 1583 1583 1584 1584 1585 1585 1585 1584 1584 1584 1584 1583 1583 1582 1582 1580 1579 1578 1576 1574 1573 1572 1570 1568 1568 1567
1555 1560 1563 1564 1564 1564 1564 1563 1563 1560 1561 1563 1565 1568 1569 1571 1574 1577 1579 1581 1581 1582 1581 1581 1581 1582 1583 1583 1584 1583 1583 1583 1583 1583 1583 1582 1582 1581 1580 1579 1578 1576 1574 1574 1572 1570 1569 1568 1567
1561 1561 1562 1563 1563 1564 1563 1561 1563 1555 1557 1562 1564 1563 1568 1572 1573 1575 1576 1577 1578 1579 1580 1580 1579 1580 1581 1582 1582 1582 1582 1582 1582 1581 1581 1581 1581 1580 1580 1579 1578 1577 1575 1574 1572 1571 1570 1568 1568
1562 1559 1560 1561 1561 1561 1563 1557 1553 1554 1556 1559 1559 1564 1569 1569 1568 1569 1570 1573 1575 1578 1579 1578 1578 1578 1579 1580 1580 1580 1581 1581 1581 1580 1580 1580 1580 1579 1579 1578 1577 1576 1575 1573 1572 1571 1569 1567 1568
1558 1556 1550 1557 1560 1561 1563 1546 1545 1550 1553 1554 1558 1562 1565 1563 1564 1565 1568 1571 1573 1575 1576 1576 1576 1577 1577 1578 1578 1579 1579 1579 1579 1579 1579 1578 1578 1578 1577 1577 1576 1575 1574 1573 1572 1570 1568 1567 1566
1551 1549 1550 1550 1557 1558 1560 1547 1545 1551 1550 1552 1556 1558 1558 1559 1557 1563 1567 1568 1570 1572 1574 1574 1573 1574 1575 1576 1576 1577 1577 1577 1577 1577 1577 1577 1576 1576 1576 1575 1575 1574 1573 1572 1571 1569 1568 1566 1565
1555 1552 1548 1551 1552 1556 1554 1547 1543 1544 1546 1550 1551 1552 1553 1554 1557 1560 1561 1563 1566 1568 1569 1570 1571 1572 1572 1572 1573 1574 1574 1575 1575 1575 1575 1574 1574 1574 1574 1574 1573 1572 1571 1570 1569 1568 1567 1566 1564
1559 1556 1552 1544 1554 1557 1545 1538 1535 1535 1538 1544 1547 1546 1547 1550 1554 1555 1558 1561 1562 1563 1565 1567 1568 1569 1570 1570 1569 1569 1570 1571 1571 1572 1572 1572 1572 1571 1571 1571 1571 1570 1570 1569 1568 1567 1566 1565 1563
1559 1556 1546 1546 1555 1558 1543 1535 1528 1530 1529 1532 1539 1540 1542 1546 1548 1551 1553 1555 1556 1558 1559 1560 1563 1564 1564 1565 1566 1567 1568 1568 1567 1567 1568 1568 1568 1569 1568 1568 1568 1568 1567 1567 1566 1565 1564 1564 1563
1553 1559 1557 1561 1553 1543 1545 1525 1525 1531 1532 1532 1532 1535 1537 1539 1543 1547 1550 1551 1552 1552 1555 1554 1555 1558 1559 1560 1560 1561 1563 1563 1563 1563 1563 1563 1564 1565 1565 1565 1565 1565 1565 1564 1564 1563 1562 1562 1561
1560 1564 1564 1562 1558 1547 1544 1536 1519 1521 1525 1529 1530 1532 1533 1537 1540 1543 1545 1546 1546 1547 1550 1551 1552 1551 1553 1555 1556 1556 1556 1556 1557 1558 1558 1558 1559 1560 1560 1561 1561 1561 1561 1561 1561 1560 1560 1559 1559
1562 1567 1565 1563 1559 1553 1545 1546 1518 1519 1524 1524 1528 1530 1532 1534 1536 1539 1540 1542 1542 1543 1543 1544 1544 1545 1546 1547 1546 1548 1549 1551 1552 1553 1554 1553 1554 1554 1555 1556 1557 1557 1558 1558 1558 1557 1557 1556 1556
1568 1564 1557 1559 1555 1550 1548 1547 1515 1518 1523 1524 1528 1530 1531 1532 1534 1535 1537 1538 1539 1540 1538 1537 1538 1538 1540 1539 1539 1540 1541 1544 1546 1547 1548 1549 1550 1549 1550 1551 1552 1553 1553 1554 1554 1554 1553 1553 1552
1564 1554 1548 1548 1546 1542 1550 1547 1522 1519 1524 1527 1529 1530 1531 1531 1532 1532 1533 1534 1534 1534 1533 1532 1532 1532 1533 1532 1533 1534 1537 1538 1539 1540 1541 1542 1543 1544 1545 1546 1546 1547 1548 1549 1549 1550 1550 1549 1548
1564 1564 1559 1576 1559 1551 1553 1550 1522 1523 1527 1528 1529 1530 1531 1531 1531 1531 1532 1532 1531 1529 1528 1526 1525 1524 1525 1526 1526 1527 1529 1531 1533 1535 1536 1537 1538 1539 1540 1541 1542 1542 1543 1543 1544 1544 1545 1545 1544
1564 1560 1567 1565 1562 1564 1535 1523 1516 1523 1524 1526 1527 1529 1529 1530 1530 1530 1529 1528 1527 1525 1523 1521 1519 1519 1519 1520 1520 1520 1522 1523 1524 1527 1529 1530 1532 1534 1535 1536 1536 1537 1537 1538 1538 1539 1539 1540 1540
1570 1569 1564 1558 1574 1567 1530 1533 1526 1520 1521 1524 1526 1527 1528 1528 1528 1527 1527 1526 1524 1521 1518 1517 1515 1514 1513 1514 1515 1514 1513 1515 1517 1519 1520 1523 1525 1527 1529 1530 1531 1531 1531 1532 1532 1533 1534 1535 1535
1570 1565 1566 1565 1563 1565 1559 1530 1514 1517 1519 1522 1523 1524 1525 1525 1525 1524 1523 1522 1519 1516 1514 1513 1511 1509 1508 1507 1506 1506 1506 1508 1511 1512 1513 1515 1518 1519 1521 1523 1524 1525 1525 1525 1526 1526 1527 1527 1528
1567 1561 1559 1565 1566 1563 1565 1549 1517 1519 1521 1524 1524 1524 1523 1523 1522 1521 1519 1518 1513 1511 1509 1508 1506 1504 1503 1502 1502 1502 1503 1503 1505 1507 1509 1511 1511 1513 1514 1515 1516 1517 1518 1519 1519 1520 1520 1521 1522
Wind_Speed
5 7 6 4 6 4 4 5 5 4 3 4 4 7 9 11 8 4 9 9 9 7 5 3 3 8 6 6 7 8 8 10 11 12 15 10 12 13 15 13 14 14 14 13 13 13 11 15 13
3 6 4 6 6 6 8 5 6 6 8 6 4 2 3 6 7 10 10 10 8 6 5 3 4 5 4 5 7 7 8 11 10 8 7 11 11 12 13 12 10 12 15 15 13 15 16 16 16
3 5 7 4 4 8 6 4 9 10 6 2 3 5 3 4 8 11 9 11 8 6 5 3 4 4 3 5 5 6 10 7 7 6 9 10 11 11 12 12 12 13 14 14 13 14 15 15 15
3 4 6 8 7 4 5 8 10 8 3 1 2 6 6 5 8 7 12 10 7 6 5 2 2 2 3 4 5 8 5 7 7 9 9 10 10 12 12 13 13 13 13 14 14 15 15 15 15
3 6 8 4 3 3 7 9 6 3 4 4 0 5 5 8 8 13 12 9 7 7 5 3 2 3 2 3 5 5 5 7 8 10 10 11 11 10 12 13 15 14 13 13 13 13 15 15 15
7 5 7 5 6 4 6 7 4 1 3 3 1 5 6 8 11 12 10 8 7 6 7 2 2 1 2 2 3 4 5 7 9 10 11 10 9 11 11 13 14 14 15 15 14 15 16 17 17
8 5 4 3 6 5 5 5 3 2 2 2 2 2 5 10 13 13 10 8 7 7 6 5 3 1 2 2 3 3 5 6 8 10 11 10 9 10 11 12 13 14 14 15 15 16 17 17 18
4 5 2 0 5 4 6 7 0 3 4 3 2 0 5 14 16 13 10 8 7 6 6 5 4 1 2 4 4 5 5 5 6 7 10 10 9 10 11 11 12 13 14 15 15 15 16 16 18
3 4 2 2 2 7 7 6 3 2 3 5 4 0 5 17 17 14 11 9 8 6 6 5 3 4 3 3 6 6 4 5 5 7 8 9 5 6 7 10 11 11 12 13 14 14 15 18 17
4 3 6 6 6 2 6 6 6 5 7 8 7 4 10 16 16 15 13 11 10 9 7 6 6 5 4 4 5 4 5 3 4 5 5 4 4 6 6 8 9 11 12 14 14 16 17 15 14
4 5 3 3 2 1 3 6 5 7 7 9 10 13 15 16 17 15 13 11 11 10 9 8 7 7 5 5 4 4 4 3 3 3 4 4 4 5 6 7 7 9 11 11 12 12 14 13 15
2 2 2 1 1 1 4 2 6 12 8 2 6 10 17 17 17 17 15 13 12 12 11 10 8 8 7 6 4 5 3 4 3 3 3 3 3 3 5 5 7 9 10 11 10 11 12 11 12
2 2 0 1 1 2 3 8 9 11 11 8 7 12 16 17 17 17 15 14 14 13 12 11 10 9 8 7 7 6 6 4 5 4 3 2 3 3 5 6 7 8 10 10 10 11 12 11 11
2 1 2 4 3 4 6 7 2 3 14 12 10 14 14 15 16 17 18 17 17 14 14 12 12 11 11 9 9 7 7 7 6 5 4 3 3 3 4 5 6 7 8 9 10 10 11 10 10
1 5 4 6 3 3 6 10 11 10 8 14 15 13 12 15 18 21 20 19 17 15 14 14 13 13 12 12 11 9 9 8 7 7 6 5 4 4 4 4 5 6 8 9 9 9 9 9 9
4 4 4 6 3 3 2 5 6 8 10 13 13 13 14 18 19 21 20 19 17 16 16 15 15 14 13 13 12 11 10 9 9 9 8 7 6 5 5 4 5 7 7 8 8 9 9 9 9
5 6 5 2 4 3 5 8 9 6 11 12 12 13 17 18 21 21 20 20 19 18 17 17 17 16 15 14 13 12 12 11 11 10 9 9 8 7 6 6 6 6 6 7 8 8 10 9 10
7 7 6 6 3 6 12 18 16 15 15 15 14 15 17 20 21 21 22 22 20 20 19 18 17 17 17 16 15 15 14 14 13 12 12 11 11 10 9 8 8 7 6 6 8 8 9 9 11
6 7 10 6 4 6 9 15 15 16 18 16 17 18 19 20 18 20 22 22 22 22 21 21 20 19 18 18 17 16 16 15 15 15 14 13 13 13 11 10 9 9 7 8 8 8 8 9 11
7 9 8 4 1 5 13 19 14 2 10 18 19 21 20 18 19 21 22 23 24 24 24 25 24 23 23 21 18 17 14 15 15 16 16 15 15 15 13 12 11 10 10 9 9 9 8 6 9
6 7 8 7 15 9 12 6 5 3 3 4 13 20 20 20 20 21 22 24 24 26 26 27 27 26 26 25 23 21 20 20 19 19 18 16 16 17 16 14 13 12 12 11 10 10 9 8 7
8 4 5 9 9 5 7 4 8 3 5 5 8 15 19 19 19 19 21 24 26 26 26 26 27 28 28 27 28 27 26 25 22 20 20 18 18 18 17 16 16 15 13 12 11 10 10 10 7
4 6 8 8 9 8 4 4 7 4 5 4 5 6 11 15 18 19 20 22 23 25 26 27 29 30 31 32 33 31 30 27 23 21 20 20 19 18 19 18 17 16 15 14 13 12 11 11 10
7 8 10 6 4 4 4 4 0 2 3 4 4 2 4 8 12 15 17 18 21 23 27 30 31 33 33 35 37 36 34 31 28 25 25 23 22 22 20 20 19 18 18 17 16 15 14 13 13
6 9 2 3 3 4 2 6 7 1 1 2 1 1 3 4 7 8 9 12 15 21 26 29 32 36 35 37 39 39 37 36 34 31 29 26 24 24 23 20 21 20 20 19 18 17 17 15 15
4 4 4 4 5 8 2 4 2 2 1 7 7 5 5 6 7 5 2 5 10 14 21 27 31 34 36 37 38 39 38 38 38 35 33 30 27 26 24 22 21 21 21 20 20 20 19 18 17
3 1 2 4 2 4 3 4 7 1 1 2 5 9 10 10 8 5 5 9 13 16 20 23 26 30 33 35 38 39 39 40 40 38 36 33 30 27 26 25 24 22 22 22 22 21 21 19 18
4 2 3 3 3 5 4 5 5 0 2 3 6 12 13 12 11 7 8 12 15 18 19 19 20 24 27 31 35 39 40 40 39 38 37 35 33 30 28 27 27 25 24 24 23 23 22 21 21
3 2 2 3 3 3 5 3 6 2 1 3 6 12 15 15 16 15 14 17 17 17 17 18 19 20 23 26 30 34 38 37 37 38 38 36 34 32 30 29 28 28 27 26 26 25 24 23 22
4 4 5 3 2 2 4 7 2 2 2 6 10 12 12 16 18 20 21 22 20 17 17 17 17 18 19 21 25 29 31 33 35 36 36 35 36 34 33 31 30 30 29 28 27 27 25 25 24
Wind_Direction
1 337 300 289 255 242 91 86 109 114 113 56 49 22 55 36 6 28 148 133 128 118 89 20 64 79 63 60 49 48 42 40 36 36 44 28 28 24 34 24 23 25 23 18 26 20 14 17 23
333 325 300 280 266 276 91 116 91 63 102 102 75 26 50 71 53 117 127 140 127 121 93 120 92 96 77 41 48 52 47 49 42 35 37 31 34 31 32 27 20 20 21 26 26 18 24 23 20
351 296 275 297 281 18 33 66 112 109 113 117 106 45 43 73 105 124 150 139 130 114 104 169 138 117 71 54 51 48 55 49 37 29 36 34 34 34 32 28 23 26 24 24 26 16 22 25 26
295 255 241 251 24 55 56 103 122 127 118 126 112 97 89 84 132 153 144 138 132 116 121 186 134 122 78 62 55 62 41 41 30 19 29 22 35 42 33 27 27 34 30 26 24 22 23 24 22
291 257 263 245 78 101 81 117 139 121 107 135 208 109 98 141 130 142 142 140 137 131 136 137 104 71 66 56 61 51 22 12 11 18 19 18 28 29 30 21 27 29 27 28 24 22 19 26 25
251 272 254 239 106 111 107 134 136 93 122 112 198 135 118 169 149 153 148 145 141 144 136 158 41 77 49 42 64 40 12 8 13 14 17 21 22 21 19 19 27 28 26 24 24 22 23 26 29
284 268 350 356 121 160 136 147 186 157 142 135 49 211 119 167 164 160 153 153 148 154 151 145 132 6 33 8 358 5 10 12 15 12 14 16 21 21 24 23 25 30 33 30 26 25 26 28 30
297 271 227 312 177 115 130 160 91 221 120 130 187 302 142 178 167 162 162 161 162 166 166 170 186 202 134 341 332 344 4 12 21 22 18 14 26 18 24 24 25 30 30 32 32 27 26 28 32
308 249 148 96 190 104 155 179 171 197 177 188 187 341 128 165 167 168 170 174 176 179 179 184 190 199 196 173 306 328 357 6 14 20 22 30 29 7 6 21 24 30 31 32 31 31 33 32 16
318 285 44 18 41 71 173 232 176 207 204 210 198 165 148 168 173 177 181 187 189 193 199 197 195 209 222 249 284 296 312 347 2 10 20 34 12 10 13 22 21 25 22 28 27 29 30 25 23
17 19 111 77 57 336 204 224 210 228 236 236 211 199 176 177 184 188 193 197 198 197 199 210 218 216 223 230 264 290 303 311 328 348 6 23 30 15 12 11 5 17 19 20 18 20 19 19 18
206 84 15 126 72 221 216 243 228 234 247 135 193 187 182 189 193 195 198 198 200 200 209 219 221 222 217 228 247 253 268 283 290 321 352 16 20 9 9 12 12 15 16 17 13 16 17 17 14
14 130 121 111 192 251 272 252 265 257 233 214 182 175 187 194 198 200 201 202 201 205 210 218 226 225 221 225 236 244 247 258 256 290 313 338 357 1 8 3 8 8 13 9 13 14 15 11 9
65 182 178 204 215 245 261 266 264 230 221 205 192 195 195 198 201 201 202 204 205 205 209 212 225 228 226 226 236 242 243 250 261 270 285 309 321 339 348 350 359 360 3 11 13 11 6 5 359
222 259 202 212 219 284 296 247 232 237 184 200 210 206 200 206 206 206 207 207 207 210 209 210 221 232 234 235 239 247 252 253 257 260 269 275 287 298 318 337 341 347 356 7 5 0 7 4 354
257 243 287 128 206 148 265 327 173 185 192 210 209 207 205 210 210 209 210 208 210 210 212 214 222 231 240 242 246 251 256 257 257 259 263 269 280 291 304 313 320 336 348 356 357 354 0 0 346
206 328 344 145 190 293 232 301 111 192 219 222 213 209 211 212 213 211 210 211 211 212 216 215 225 229 236 242 241 249 251 257 257 255 259 267 276 281 287 292 299 317 328 339 346 345 346 348 341
337 327 332 324 112 250 267 267 271 234 222 231 224 218 218 220 219 213 212 212 211 214 215 220 222 228 230 235 239 245 250 255 254 256 257 260 269 272 273 281 286 296 309 322 327 332 333 338 338
316 303 303 326 70 296 268 279 280 265 226 225 231 225 223 225 222 218 215 214 215 217 220 219 221 226 225 231 234 237 244 250 254 255 255 259 262 267 268 270 274 284 289 289 308 321 330 334 331
295 298 325 320 63 293 301 295 293 298 253 234 223 227 225 223 219 218 216 216 219 221 224 228 228 229 233 234 236 237 238 244 250 255 258 259 260 261 263 264 266 266 273 287 295 306 317 327 321
283 309 339 318 318 260 297 259 165 162 226 230 225 221 223 222 219 219 217 220 221 225 225 231 233 234 236 240 238 239 236 239 243 249 256 260 259 260 261 259 261 264 267 270 277 288 300 303 317
300 23 314 307 322 327 1 312 119 92 117 203 194 210 219 220 222 222 221 224 226 232 234 235 236 237 236 239 240 242 247 250 257 256 255 254 256 257 259 258 258 257 260 266 270 278 286 294 298
349 325 304 298 288 301 149 263 112 161 103 101 118 188 214 221 223 223 223 230 233 233 239 240 242 242 240 240 245 244 248 252 254 253 248 253 255 257 257 257 256 257 256 257 259 262 277 282 281
309 280 247 272 264 225 81 349 145 107 86 119 114 131 175 211 218 223 228 231 236 242 248 249 246 248 245 245 246 248 249 249 246 248 253 252 255 258 256 256 256 254 256 258 260 263 265 266 269
270 294 282 220 219 23 109 291 294 183 193 23 306 151 153 166 179 197 219 235 250 253 256 258 254 250 249 249 248 250 250 250 250 251 252 253 254 255 259 258 256 256 258 258 259 261 264 267 269
346 327 360 316 345 318 144 234 62 21 169 292 260 223 207 187 173 152 205 266 276 276 269 261 259 255 250 249 251 252 252 250 251 251 252 255 256 258 259 259 258 257 258 260 259 260 263 263 265
68 305 22 285 180 271 271 246 239 271 187 288 217 211 219 207 197 210 278 300 289 283 282 272 266 265 258 253 252 254 254 252 250 251 251 252 254 256 256 259 260 258 257 258 261 262 263 265 265
305 356 231 188 328 314 293 296 279 306 312 173 208 221 225 222 223 244 296 300 292 294 291 280 278 272 266 258 254 255 255 253 252 249 249 250 252 253 255 257 258 259 259 257 258 261 262 261 263
166 202 231 312 288 306 310 280 30 328 306 284 266 235 232 235 243 260 296 306 303 303 297 292 287 282 271 264 259 253 252 251 249 249 248 248 250 251 253 256 258 258 258 258 257 259 260 260 262
304 300 269 289 177 258 277 275 94 29 353 317 296 293 260 258 268 278 283 301 297 289 291 297 297 290 284 275 262 257 254 250 248 248 250 249 249 250 252 254 256 257 257 257 256 257 258 260 259